Regional Weather Roundup
Issued by NWS

Home | Current Version | Previous Version | Graphics & Text | Print | Product List | Glossary On
Versions: 1 2 3 4 5 6 7 8 9 10 11 12 13 14 15 16 17 18 19 20 21 22 23 24 25 26 27 28 29 30 31 32 33 34 35 36 37 38 39 40 41 42 43 44 45 46 47 48 49 50
000
ASUS45 KABQ 280001
RWRNM
WEATHER ROUNDUP FOR NEW MEXICO
NATIONAL WEATHER SERVICE ALBUQUERQUE NM
600 PM MDT FRI MAR 27 2015

NOTE: "FAIR" MEANS FEW OR NO CLOUDS BELOW 12,000 FEET AGL WITH NO
       SIGNIFICANT WEATHER OR OBSTRUCTIONS TO VISION.

      THIS PRODUCT IS RELEASED AS TWO VERSIONS.  ONE VERSION NEAR
      THE TOP OF THE HOUR CONTAINING PRELIMINARY DATA FROM ALBUQUERQUE
      AND OTHER STATIONS.  A FINAL VERSION WITH ADDITIONAL DATA IS
      ISSUED ABOUT 10 MINUTES AFTER THE HOUR.

NMZ501-503-504-510>518-280100-
NORTHWEST PLATEAU/NORTHCENTRAL MOUNTAINS

CITY           SKY/WX    TMP DP  RH WIND       PRES   REMARKS
FARMINGTON     SUNNY     71  18  13 W22G29    30.15S
6HR MIN TEMP:  62; 6HR MAX TEMP:  72;

SANTA FE       SUNNY     71  14  11 W16G28    30.13F
6HR MIN TEMP:  62; 6HR MAX TEMP:  73;

TAOS           CLOUDY    64  18  16 S6        30.18F
ANGEL FIRE     FAIR      58  21  23 W13       30.25F

$$
NMZ402-403-502-505>509-280100-
WESTCENTRAL MOUNTAINS/SOUTHWEST MOUNTAINS

CITY           SKY/WX    TMP DP  RH WIND       PRES   REMARKS
GALLUP         SUNNY     72   9   8 NW13      30.22S
6HR MIN TEMP:  63; 6HR MAX TEMP:  74;

GRANTS         SUNNY     72  13  10 NW12G22   30.21S

$$
NMZ407-409-411-412-280100-
SOUTHERN DESERTS

CITY           SKY/WX    TMP DP  RH WIND       PRES   REMARKS
DEMING         SUNNY     80  11   7 SW9       30.12F
6HR MIN TEMP:  68; 6HR MAX TEMP:  80;

ALAMOGORDO     MOSUNNY   75  16  10 N9        30.13S
T OR C         SUNNY     76  17  11 S13       30.11F
6HR MIN TEMP:  65; 6HR MAX TEMP:  78;


$$
NMZ519>523-280100-
CENTRAL VALLEYS/CENTRAL HIGHLANDS

CITY           SKY/WX    TMP DP  RH WIND       PRES   REMARKS
ALBUQUERQUE    MOSUNNY   76  15  10 NW16      30.13F
6HR MIN TEMP:  63; 6HR MAX TEMP:  77;

DOUBLE EAGLE   SUNNY     73  10   9 W14G22    30.17F
MORIARTY ARPT  FAIR      71  11  10 NW16G24   30.17F
6HR MIN TEMP:  65; 6HR MAX TEMP:  74;

CLINES CORNERS SUNNY     67  12  12 NW20      30.19S
6HR MIN TEMP:  61; 6HR MAX TEMP:  70;

BELEN          FAIR      76  15   9 W8        30.12F
6HR MIN TEMP:  66; 6HR MAX TEMP:  77;

SOCORRO        FAIR      77  20  12 S10G17    30.12F
6HR MIN TEMP:  65; 6HR MAX TEMP:  78;


$$
NMZ524>526-539-540-280100-
SOUTHCENTRAL MOUNTAINS

CITY           SKY/WX    TMP DP  RH WIND       PRES   REMARKS
RUIDOSO        NOT AVBL

$$
NMZ527>531-280100-
NORTHEAST HIGHLANDS/NORTHEAST PLAINS

CITY           SKY/WX    TMP DP  RH WIND       PRES   REMARKS
LAS VEGAS      SUNNY     69  17  13 VRB3      30.14S
6HR MIN TEMP:  63; 6HR MAX TEMP:  70;

RATON          MOSUNNY   70  14  11 NW12G24   30.09R
6HR MIN TEMP:  63; 6HR MAX TEMP:  74;

CLAYTON        MOSUNNY   68  28  22 S17       30.09F
6HR MIN TEMP:  63; 6HR MAX TEMP:  71;


$$
NMZ532>537-280100-
EASTCENTRAL PLAINS

CITY           SKY/WX    TMP DP  RH WIND       PRES   REMARKS
TUCUMCARI      SUNNY     76  21  12 S9        30.05F
6HR MIN TEMP:  66; 6HR MAX TEMP:  76;

CANNON AFB     NOT AVBL
CLOVIS AIRPORT SUNNY     72  28  20 S8        30.09F

$$
NMZ028-029-538-280100-
SOUTHEAST PLAINS

CITY           SKY/WX    TMP DP  RH WIND       PRES   REMARKS
ROSWELL        SUNNY     79  23  12 SE15      30.06F
6HR MIN TEMP:  70; 6HR MAX TEMP:  81;

ARTESIA        SUNNY     79  27  14 S13       30.06F
CARLSBAD       SUNNY     80  27  14 SE9       30.05F
6HR MIN TEMP:  70; 6HR MAX TEMP:  81;

HOBBS          SUNNY     75  19  12 W7        30.09S


$$


USA.gov is the U.S. government's official web portal to all federal, state and local government web resources and services.